Regional Weather Roundup
Issued by NWS Jackson, KY

Home | Current Version | Previous Version | Graphics & Text | Print | Product List | Glossary Off
Versions: 1 2 3 4 5 6 7 8 9 10 11 12 13 14 15 16 17 18 19 20 21 22 23 24 25 26 27 28 29 30 31 32 33 34 35 36 37 38 39 40 41 42 43 44 45 46 47 48 49 50

000
ASUS43 KJKL 212119
RWRJKL

EAST KENTUCKY HOURLY WEATHER ROUNDUP
NATIONAL WEATHER SERVICE JACKSON KY
500 PM EDT TUE OCT 21 2014

NOTE: "FAIR" INDICATES FEW OR NO CLOUDS BELOW 12,000 FEET WITH
NO SIGNIFICANT WEATHER AND/OR OBSTRUCTIONS TO VISIBILITY.

* THESE REPORTS ARE NOT UNDER NWS QUALITY CONTROL AND MAY NOT
  REPORT WEATHER SUCH AS PRECIPITATION AND FOG.

KYZ079-080-083-085-087-088-110-112-115-119-120-212200
...EASTERN KENTUCKY...

CITY           SKY/WX    TMP DP  RH WIND       PRES   REMARKS
JACKSON        CLOUDY    52  39  61 VRB7      30.05R
LONDON         CLOUDY    57  40  52 N12G21    30.06R
SOMERSET*      CLOUDY    55  41  58 N13       30.07R
MONTICELLO*    PTSUNNY   62  44  51 N13G18    30.07R
WILLIAMSBURG*  PTSUNNY   57  45  62 CALM      30.05R
MIDDLESBORO*   CLOUDY    60  43  52 N8        30.03R
HARLAN APT*    CLOUDY    54  37  54 W8G21     30.04R
BLACK MTN*       N/A     41  39  93 S3          N/A
PIKEVILLE APT* CLOUDY    50  39  66 NW10      30.04R
BIG SANDY*     CLOUDY    52  41  64 NW5       30.04R
MOREHEAD APT*  CLOUDY    52  39  62 N9G16     30.09R
ASHLAND*         N/A    N/A N/A N/A CALM        N/A
$$

KYZ035-036-041-042-044-050-067-078-099-212200
...CENTRAL KENTUCKY...

CITY           SKY/WX    TMP DP  RH WIND       PRES   REMARKS
MT STERLING*   CLOUDY    52  41  66 N8        30.08R
FLEMING/MASON* CLOUDY    51  41  67 NW5       30.08R
DANVILLE*      CLOUDY    54  41  62 N9        30.09R
RICHMOND*      CLOUDY    54  39  58 N6        30.07R
LEXINGTON      CLOUDY    57  41  55 N5        30.08R
FRANKFORT      CLOUDY    56  40  55 NW10      30.08R
$$

KYZ091>093-OHZ055-061-077-WVZ005-015-034-035-042-212200
...SOUTHERN OHIO/WEST VIRGINIA...

CITY           SKY/WX    TMP DP  RH WIND       PRES   REMARKS
COVINGTON      CLOUDY    55  40  56 N9        30.08R
COLUMBUS       CLOUDY    48  41  76 N13G24    30.04R
DAYTON         LGT RAIN  50  46  86 N8        30.09R
WILMINGTON     CLOUDY    51  42  71 NW10      30.05S
HUNTINGTON     CLOUDY    52  42  69 W7        30.03R
CHARLESTON     CLOUDY    51  43  74 NW6       30.00R
PINEVILLE*     DRIZZLE   51  47  87 MISG      30.04R
BECKLEY        LGT RAIN  45  39  79 NW14G24   29.98R
BLUEFIELD      CLOUDY    50  40  68 NW13G22   29.97R
$$

VAZ002-007-008-TNZ017-027-036-066-071-212200
...SOUTHWEST VIRGINIA/EAST TENNESSEE...

CITY           SKY/WX    TMP DP  RH WIND       PRES   REMARKS
WISE*          CLOUDY    50  37  62 NW9       30.03R
JONESVILLE*    PTCLDY    57  39  51 NW8       30.04R
ABINGDON*      CLOUDY    56  38  49 NW9G20    29.99R
BRISTOL        PTSUNNY   60  40  47 NW13      29.98R
KNOXVILLE      MOSUNNY   67  43  41 N5        29.98S
OAK RIDGE      SUNNY     69  41  36 W7        30.01R
CROSSVILLE     MOSUNNY   63  42  46 NW12      30.03S
NASHVILLE      MOSUNNY   72  45  37 N10       30.03S
$$

...KEY TO REMARKS...
VSB - VISIBILITY IN MILES
WCI - WIND CHILL INDEX
HX  - HEAT INDEX

$$



USA.gov is the U.S. government's official web portal to all federal, state and local government web resources and services.